When you browse on this site, cookies collect data to enhance your experience and personalize the content and advertising you see.
Visit our Privacy Policy to learn more. By continuing to use the site, you agree to this use of cookies and data.
  • In Hungary
  • List of Countries
  • For 7 days
  • Water Temperature
  • Weather Map
  • News
  • Weather Widgets
  • user-avatar
    Login

    Hourly Weather Kudenkovo

    Today, 22 February, Saturday

    Time Temperature Precipitation Wind Pressure Humidity
    00:00 -1°C° 0 mm 5 mps 746 mmHg 84%
    01:00 -1°C° 0 mm 4 mps 746 mmHg 89%
    02:00 -1°C° 0 mm 4 mps 746 mmHg 92%
    03:00 -1°C° 0 mm 4 mps 746 mmHg 91%
    04:00 -1°C° 0 mm 4 mps 746 mmHg 89%
    05:00 -1°C° 0 mm 4 mps 746 mmHg 87%
    06:00 -1°C° 0 mm 4 mps 746 mmHg 88%
    07:00 -1°C° 0 mm 5 mps 746 mmHg 89%
    08:00 -2°C° 0 mm 5 mps 746 mmHg 90%
    09:00 -2°C° 0 mm 6 mps 745 mmHg 87%
    10:00 -2°C° 0 mm 6 mps 745 mmHg 85%
    11:00 -1°C° 0 mm 6 mps 744 mmHg 82%
    12:00 -1°C° 0 mm 6 mps 744 mmHg 79%
    13:00 0°C° 0 mm 7 mps 743 mmHg 75%
    14:00 +2°C° 0 mm 7 mps 742 mmHg 72%
    15:00 0°C° 0.3 mm 8 mps 741 mmHg 77%
    16:00 0°C° 0.3 mm 8 mps 739 mmHg 82%
    17:00 -1°C° 0.3 mm 9 mps 738 mmHg 88%
    18:00 -1°C° 1 mm 9 mps 736 mmHg 89%
    19:00 -1°C° 1 mm 9 mps 735 mmHg 91%
    20:00 -1°C° 1 mm 9 mps 734 mmHg 92%
    21:00 -1°C° 0.6 mm 9 mps 732 mmHg 91%
    22:00 0°C° 0.6 mm 9 mps 731 mmHg 90%
    23:00 +1°C° 0.6 mm 9 mps 730 mmHg 88%

    Tomorrow, 23 February, Sunday

    Time Temperature Precipitation Wind Pressure Humidity
    00:00 +1°C° 0.6 mm 8 mps 729 mmHg 85%
    01:00 +2°C° 0.6 mm 7 mps 729 mmHg 81%
    02:00 +2°C° 0.6 mm 5 mps 729 mmHg 77%
    03:00 +1°C° 0 mm 5 mps 728 mmHg 78%
    04:00 0°C° 0 mm 5 mps 728 mmHg 78%
    05:00 0°C° 0 mm 5 mps 728 mmHg 78%
    06:00 0°C° 0 mm 5 mps 728 mmHg 79%
    07:00 0°C° 0 mm 5 mps 729 mmHg 80%
    08:00 0°C° 0 mm 5 mps 729 mmHg 80%
    09:00 0°C° 0 mm 5 mps 729 mmHg 78%
    10:00 -1°C° 0 mm 6 mps 729 mmHg 75%
    11:00 +1°C° 0 mm 6 mps 729 mmHg 73%
    12:00 +1°C° 0 mm 6 mps 729 mmHg 71%
    13:00 +1°C° 0 mm 6 mps 729 mmHg 70%
    14:00 +1°C° 0 mm 6 mps 729 mmHg 68%
    15:00 +1°C° 0.1 mm 6 mps 728 mmHg 73%
    16:00 +1°C° 0.1 mm 6 mps 728 mmHg 78%
    17:00 -1°C° 0.1 mm 6 mps 727 mmHg 84%
    18:00 -1°C° 0.1 mm 6 mps 727 mmHg 85%
    19:00 -1°C° 0.1 mm 6 mps 727 mmHg 87%
    20:00 -1°C° 0.1 mm 6 mps 728 mmHg 88%
    21:00 -1°C° 0.1 mm 5 mps 727 mmHg 90%
    22:00 -1°C° 0.1 mm 5 mps 727 mmHg 92%
    23:00 -1°C° 0.1 mm 5 mps 727 mmHg 94%

    Day after tomorrow, 24 February, Monday

    Time Temperature Precipitation Wind Pressure Humidity
    00:00 -1°C° 0.1 mm 5 mps 727 mmHg 93%
    01:00 -1°C° 0.1 mm 5 mps 727 mmHg 93%
    02:00 -1°C° 0.1 mm 4 mps 727 mmHg 92%
    03:00 -1°C° 0 mm 4 mps 727 mmHg 90%
    04:00 -2°C° 0 mm 4 mps 728 mmHg 87%
    05:00 -2°C° 0 mm 4 mps 728 mmHg 84%
    06:00 -2°C° 0.1 mm 4 mps 729 mmHg 82%
    07:00 -1°C° 0.1 mm 5 mps 730 mmHg 79%
    08:00 -1°C° 0.1 mm 5 mps 731 mmHg 76%
    09:00 -1°C° 0 mm 5 mps 731 mmHg 70%
    10:00 -2°C° 0 mm 6 mps 732 mmHg 65%
    11:00 -2°C° 0 mm 6 mps 733 mmHg 59%
    12:00 -2°C° 0 mm 6 mps 733 mmHg 58%
    13:00 -1°C° 0 mm 6 mps 734 mmHg 56%
    14:00 -1°C° 0 mm 6 mps 735 mmHg 55%
    15:00 -2°C° 0 mm 6 mps 735 mmHg 57%
    16:00 -1°C° 0 mm 5 mps 735 mmHg 59%
    17:00 -1°C° 0 mm 4 mps 736 mmHg 61%
    18:00 -2°C° 0 mm 4 mps 736 mmHg 65%
    19:00 -3°C° 0 mm 4 mps 737 mmHg 69%
    20:00 -2°C° 0 mm 3 mps 737 mmHg 72%
    21:00 -2°C° 0 mm 3 mps 737 mmHg 74%
    22:00 -4°C° 0 mm 3 mps 737 mmHg 76%
    23:00 -4°C° 0 mm 3 mps 738 mmHg 77%

    25 February, Tuesday

    Time Temperature Precipitation Wind Pressure Humidity
    00:00 -4°C° 0 mm 3 mps 738 mmHg 78%
    01:00 -4°C° 0 mm 3 mps 738 mmHg 79%
    02:00 -3°C° 0 mm 2 mps 738 mmHg 80%
    03:00 -3°C° 0 mm 2 mps 738 mmHg 80%
    04:00 -3°C° 0 mm 2 mps 737 mmHg 81%
    05:00 -3°C° 0 mm 2 mps 737 mmHg 81%
    06:00 -3°C° 0 mm 2 mps 737 mmHg 78%
    07:00 -3°C° 0 mm 2 mps 736 mmHg 76%
    08:00 -4°C° 0 mm 3 mps 736 mmHg 74%
    09:00 -2°C° 0 mm 3 mps 735 mmHg 78%
    10:00 -2°C° 0 mm 4 mps 735 mmHg 82%
    11:00 -1°C° 0 mm 4 mps 734 mmHg 85%
    12:00 -1°C° 0.1 mm 4 mps 734 mmHg 84%
    13:00 -1°C° 0.1 mm 4 mps 733 mmHg 82%
    14:00 0°C° 0.1 mm 4 mps 732 mmHg 80%
    15:00 -1°C° 0.2 mm 5 mps 731 mmHg 85%
    16:00 -1°C° 0.2 mm 5 mps 730 mmHg 90%
    17:00 -2°C° 0.2 mm 5 mps 729 mmHg 95%
    18:00 -1°C° 0.3 mm 5 mps 729 mmHg 95%
    19:00 -1°C° 0.3 mm 4 mps 729 mmHg 94%
    20:00 0°C° 0.3 mm 4 mps 728 mmHg 94%
    21:00 -1°C° 0 mm 4 mps 728 mmHg 94%
    22:00 0°C° 0 mm 3 mps 728 mmHg 93%
    23:00 0°C° 0 mm 3 mps 728 mmHg 93%

    26 February, Wednesday

    Time Temperature Precipitation Wind Pressure Humidity
    00:00 -1°C° 0 mm 3 mps 728 mmHg 92%
    01:00 -1°C° 0 mm 3 mps 727 mmHg 92%
    02:00 -1°C° 0 mm 3 mps 727 mmHg 92%
    03:00 -1°C° 0 mm 3 mps 727 mmHg 93%
    04:00 -1°C° 0 mm 3 mps 726 mmHg 94%
    05:00 -1°C° 0 mm 3 mps 726 mmHg 95%
    06:00 -1°C° 0 mm 3 mps 726 mmHg 94%
    07:00 -1°C° 0 mm 3 mps 726 mmHg 93%
    08:00 -1°C° 0 mm 3 mps 726 mmHg 93%
    09:00 -1°C° 0 mm 3 mps 726 mmHg 88%
    10:00 -1°C° 0 mm 4 mps 727 mmHg 83%
    11:00 0°C° 0 mm 4 mps 727 mmHg 78%
    12:00 0°C° 0 mm 4 mps 727 mmHg 76%
    13:00 0°C° 0 mm 4 mps 728 mmHg 73%
    14:00 +1°C° 0 mm 4 mps 728 mmHg 71%
    15:00 0°C° 0 mm 4 mps 728 mmHg 72%
    16:00 0°C° 0 mm 4 mps 728 mmHg 73%
    17:00 0°C° 0 mm 4 mps 728 mmHg 74%
    18:00 -1°C° 0 mm 4 mps 729 mmHg 75%
    19:00 -1°C° 0 mm 4 mps 729 mmHg 76%
    20:00 -1°C° 0 mm 4 mps 730 mmHg 77%
    21:00 -1°C° 0 mm 3 mps 730 mmHg 78%
    22:00 -1°C° 0 mm 3 mps 730 mmHg 79%
    23:00 -2°C° 0 mm 3 mps 731 mmHg 80%

    27 February, Thursday

    Time Temperature Precipitation Wind Pressure Humidity
    00:00 -2°C° 0 mm 3 mps 731 mmHg 82%
    01:00 -2°C° 0 mm 3 mps 731 mmHg 84%
    02:00 -2°C° 0 mm 3 mps 731 mmHg 86%
    03:00 -2°C° 0 mm 3 mps 731 mmHg 87%
    04:00 -2°C° 0 mm 2 mps 731 mmHg 89%
    05:00 -2°C° 0 mm 2 mps 732 mmHg 90%
    06:00 -2°C° 0 mm 2 mps 732 mmHg 90%
    07:00 -2°C° 0 mm 2 mps 732 mmHg 90%
    08:00 -2°C° 0 mm 2 mps 732 mmHg 90%
    09:00 -1°C° 0.1 mm 2 mps 733 mmHg 88%
    10:00 +1°C° 0.1 mm 2 mps 733 mmHg 86%
    11:00 +2°C° 0.1 mm 2 mps 733 mmHg 84%
    12:00 +2°C° 0.5 mm 2 mps 733 mmHg 87%
    13:00 +1°C° 0.5 mm 2 mps 733 mmHg 91%
    14:00 +2°C° 0.5 mm 1 mps 733 mmHg 94%
    15:00 +2°C° 0.4 mm 1 mps 733 mmHg 95%
    16:00 +2°C° 0.4 mm 1 mps 734 mmHg 96%
    17:00 +1°C° 0.4 mm 1 mps 734 mmHg 97%
    18:00 +1°C° 0 mm 1 mps 734 mmHg 96%
    19:00 -1°C° 0 mm 2 mps 735 mmHg 96%
    20:00 -2°C° 0 mm 2 mps 735 mmHg 95%
    21:00 -2°C° 0 mm 2 mps 736 mmHg 93%
    22:00 -2°C° 0 mm 2 mps 736 mmHg 91%
    23:00 -3°C° 0 mm 2 mps 736 mmHg 89%
    Show more